EST,Max TemperatureF,Mean TemperatureF,Min TemperatureF,Max Dew PointF,MeanDew PointF,Min DewpointF,Max Humidity, Mean Humidity, Min Humidity, Max Sea Level PressureIn, Mean Sea Level PressureIn, Min Sea Level PressureIn, Max VisibilityMiles, Mean VisibilityMiles, Min VisibilityMiles, Max Wind SpeedMPH, Mean Wind SpeedMPH, Max Gust SpeedMPH,PrecipitationIn, CloudCover, Events, WindDirDegrees
2013-11-1,54,48,43,54,45,36,100,90,75,29.69,29.37,29.00,10,9,0,30,15,40,0.00,8,Fog-Rain,307
2013-11-2,43,40,36,38,33,29,89,77,69,30.17,29.92,29.69,10,10,7,13,8,17,0.00,8,Rain,43
2013-11-3,45,39,33,31,30,28,87,73,52,30.39,30.32,30.17,10,10,10,9,6,,0.00,4,,133
2013-11-4,51,42,35,32,30,25,84,63,41,30.41,30.29,30.17,10,10,10,22,12,28,0.00,2,,142
2013-11-5,55,50,46,50,44,32,95,81,57,30.28,30.20,30.02,10,10,7,13,7,17,0.00,7,Rain,194
2013-11-6,53,45,38,53,44,30,100,93,70,30.01,29.84,29.68,10,8,2,22,12,33,0.00,8,Rain,249
2013-11-7,39,38,37,32,30,26,81,71,59,30.08,30.04,30.00,10,10,7,22,15,30,0.00,8,Rain-Snow,298
2013-11-8,40,36,33,32,28,26,84,70,56,30.22,30.15,30.08,10,10,3,20,12,26,0.00,7,Snow,268
2013-11-9,45,40,34,46,37,29,100,87,69,30.07,29.77,29.65,10,8,2,32,13,40,0.00,8,Rain-Snow,210
2013-11-10,43,40,38,37,32,28,88,73,63,30.20,30.06,29.80,10,10,5,31,23,40,0.00,7,Rain,284
2013-11-11,44,36,28,38,26,16,99,76,53,30.39,30.15,29.97,10,8,2,25,18,39,0.00,7,Rain-Snow,313
2013-11-12,32,30,27,23,19,16,75,65,54,30.55,30.49,30.39,10,10,5,23,16,32,0.00,7,Snow,311
2013-11-13,42,36,30,30,25,18,84,65,54,30.44,30.16,29.92,10,10,10,26,14,38,0.00,2,,229
2013-11-14,45,42,38,37,32,29,86,69,60,29.93,29.88,29.82,10,10,10,21,14,39,0.00,3,Rain,218
2013-11-15,51,43,35,41,38,34,100,81,60,29.96,29.90,29.85,10,10,7,14,7,20,0.00,2,,205
2013-11-16,55,46,36,53,42,34,96,86,77,29.97,29.81,29.53,10,9,5,21,8,30,0.00,5,Rain,153
2013-11-17,59,52,44,59,53,42,100,98,89,29.55,29.32,29.03,10,7,1,40,13,46,0.00,8,Rain,179
2013-11-18,43,38,32,40,27,22,85,70,61,30.13,29.72,29.29,10,10,2,39,31,50,0.00,8,Snow,291
2013-11-19,35,32,29,25,23,20,85,72,65,30.38,30.32,30.14,10,10,10,18,10,28,0.00,5,,337
2013-11-20,43,36,30,28,24,22,76,62,44,30.35,30.29,30.20,10,10,10,15,8,20,0.00,0,,145
2013-11-21,42,39,36,41,35,27,97,83,63,30.22,30.19,30.17,10,9,2,9,5,,0.00,8,Rain,167
2013-11-22,40,36,31,37,28,19,96,80,56,30.37,30.29,30.19,10,8,0,22,12,30,0.00,8,Rain-Snow,318
2013-11-23,31,25,18,23,11,4,85,63,50,30.52,30.40,30.24,10,6,0,28,21,41,0.00,7,Snow,323
2013-11-24,28,22,19,16,10,2,78,64,48,30.54,30.43,30.14,10,9,2,22,14,30,0.00,7,Snow,271
2013-11-25,37,32,26,30,26,19,94,78,62,30.14,29.93,29.85,10,7,0,26,17,36,0.00,7,Snow,230
2013-11-26,37,30,23,30,24,13,90,75,64,30.07,29.97,29.90,10,7,1,22,14,32,0.00,8,Snow,321
2013-11-27,24,22,21,17,13,10,79,65,54,30.19,30.09,30.02,10,7,1,25,16,34,0.00,8,Snow,3
2013-11-28,23,20,16,20,15,10,86,79,61,30.45,30.28,30.19,10,7,2,13,7,16,0.00,7,Snow,128
2013-11-29,30,20,11,23,17,9,95,81,66,30.62,30.54,30.46,10,10,10,9,6,,0.00,4,,147
2013-11-30,37,31,25,33,27,18,87,78,69,30.46,30.18,30.04,10,9,5,14,8,21,0.00,7,,173